Weather History for KTDF - November, 2011

Change the Weather History Date:

Monday, November 14, 2011

  Actual Average (KRDU) Record (KRDU)
Temperature  
Mean Temperature 64 °F 53 °F  
Max Temperature 75 °F 64 °F 81 °F (1999)
Min Temperature 53 °F 41 °F 20 °F (1977)
Degree Days  
Heating Degree Days 1 13  
Month to date heating degree days 151  
Since 1 July heating degree days 340  
Cooling Degree Days 0 0  
Month to date cooling degree days 1  
Year to date cooling degree days 1721  
Growing Degree Days 14 (Base 50)    
Moisture  
Dew Point 50 °F    
Average Humidity 62    
Maximum Humidity 88    
Minimum Humidity 38    
Precipitation  
Precipitation 0.00 in 0.11 in 1.57 in (1940)
Month to date precipitation 1.47  
Year to date precipitation 38.62  
Sea Level Pressure  
Sea Level Pressure 30.06 in    
Wind  
Wind Speed 8 mph (SW)    
Max Wind Speed 23 mph    
Max Gust Speed 29 mph    
Visibility 10 miles    
Events      
T = Trace of Precipitation, MM = Missing Value Source: NWS Daily Summary

Daily Weather History Graph

Daily Weather History Graph

Search for Another Location

Airport or City:

Trip Planner

Search our weather history database for the weather conditions in past years. The results will help you decide how hot, cold, wet, or windy it might be!

Date:

Astronomy

Nov. 14, 2011 Rise Set
Actual Time 6:51 AM EST 5:08 PM EST
Civil Twilight 6:24 AM EST 5:35 PM EST
Nautical Twilight 5:53 AM EST 6:06 PM EST
Astronomical Twilight 5:22 AM EST 6:37 PM EST
Moon 8:15 PM EST (11/14) 10:06 AM EST (11/14)
Length of Visible Light 11h 11m
Length of Day
10h 16m
Waning Gibbous, 87% of the Moon is Illuminated
Nov 14
Waning Gibbous
Nov 18
Last Quarter
Nov 25
New
Dec 2
First Quarter
Dec 10
Full

Hourly Weather History & Observations

Time (EST) Temp. Dew Point Humidity Pressure Visibility Wind Dir Wind Speed Gust Speed Precip Events Conditions
12:15 AM 55.4 °F 46.4 °F 72% 30.12 in 10.0 mi SSW 6.9 mph - N/A   Unknown
12:35 AM 55.4 °F 46.4 °F 72% 30.12 in 10.0 mi SSW 4.6 mph - N/A   Unknown
12:55 AM 55.4 °F 46.4 °F 72% 30.11 in 10.0 mi Calm Calm - N/A   Unknown
1:15 AM 55.4 °F 46.4 °F 72% 30.12 in 10.0 mi Calm Calm - N/A   Unknown
1:35 AM 55.4 °F 46.4 °F 72% 30.12 in 10.0 mi Calm Calm - N/A   Unknown
1:55 AM 55.4 °F 48.2 °F 77% 30.11 in 10.0 mi SSW 4.6 mph - N/A   Unknown
2:15 AM 55.4 °F 48.2 °F 77% 30.12 in 10.0 mi SW 6.9 mph - N/A   Unknown
2:35 AM 57.2 °F 48.2 °F 72% 30.12 in 10.0 mi SW 9.2 mph - N/A   Unknown
2:55 AM 57.2 °F 48.2 °F 72% 30.12 in 10.0 mi SW 10.4 mph - N/A   Unknown
3:15 AM 57.2 °F 48.2 °F 72% 30.11 in 10.0 mi SW 10.4 mph - N/A   Unknown
3:35 AM 57.2 °F 48.2 °F 72% 30.11 in 10.0 mi SW 9.2 mph - N/A   Unknown
3:55 AM 57.2 °F 50.0 °F 77% 30.10 in 10.0 mi SW 8.1 mph - N/A   Unknown
4:15 AM 57.2 °F 50.0 °F 77% 30.11 in 10.0 mi SW 9.2 mph - N/A   Unknown
4:35 AM 55.4 °F 50.0 °F 82% 30.11 in 10.0 mi SSW 4.6 mph - N/A   Unknown
4:55 AM 55.4 °F 50.0 °F 82% 30.11 in 10.0 mi SSW 3.5 mph - N/A   Unknown
5:15 AM 55.4 °F 50.0 °F 82% 30.12 in 10.0 mi SSW 4.6 mph - N/A   Unknown
5:35 AM 53.6 °F 50.0 °F 88% 30.13 in 10.0 mi SW 3.5 mph - N/A   Unknown
5:55 AM 55.4 °F 50.0 °F 82% 30.12 in 10.0 mi South 3.5 mph - N/A   Unknown
6:15 AM 55.4 °F 51.8 °F 88% 30.12 in 10.0 mi SSW 4.6 mph - N/A   Unknown
6:35 AM 55.4 °F 51.8 °F 88% 30.13 in 10.0 mi SSW 4.6 mph - N/A   Unknown
7:15 AM 55.4 °F 51.8 °F 88% 30.13 in 10.0 mi SSW 5.8 mph - N/A   Unknown
7:35 AM 55.4 °F 51.8 °F 88% 30.13 in 10.0 mi Calm Calm - N/A   Unknown
7:55 AM 55.4 °F 51.8 °F 88% 30.13 in 10.0 mi SSW 4.6 mph - N/A   Unknown
8:35 AM 59.0 °F 51.8 °F 77% 30.12 in 10.0 mi SSW 6.9 mph - N/A   Unknown
8:55 AM 60.8 °F 51.8 °F 72% 30.13 in 10.0 mi SSW 9.2 mph - N/A   Unknown
9:15 AM 62.6 °F 51.8 °F 68% 30.13 in 10.0 mi SW 10.4 mph - N/A   Unknown
9:35 AM 64.4 °F 50.0 °F 59% 30.13 in 10.0 mi SW 15.0 mph 18.4 mph N/A   Unknown
9:55 AM 66.2 °F 48.2 °F 52% 30.12 in 10.0 mi SW 15.0 mph 23.0 mph N/A   Unknown
10:15 AM 66.2 °F 48.2 °F 52% 30.12 in 10.0 mi SW 17.3 mph 23.0 mph N/A   Unknown
10:35 AM 69.8 °F 48.2 °F 46% 30.12 in 10.0 mi SW 17.3 mph 21.9 mph N/A   Unknown
10:55 AM 69.8 °F 48.2 °F 46% 30.11 in 10.0 mi WSW 12.7 mph 19.6 mph N/A   Unknown
11:15 AM 71.6 °F 48.2 °F 43% 30.09 in 10.0 mi WSW 16.1 mph 28.8 mph N/A   Unknown
11:35 AM 71.6 °F 48.2 °F 43% 30.09 in 10.0 mi WSW 15.0 mph 27.6 mph N/A   Unknown
11:55 AM 73.4 °F 48.2 °F 41% 30.07 in 10.0 mi WSW 11.5 mph 20.7 mph N/A   Unknown
12:15 PM 73.4 °F 48.2 °F 41% 30.05 in 10.0 mi SW 18.4 mph 26.5 mph N/A   Unknown
12:35 PM 73.4 °F 48.2 °F 41% 30.04 in 10.0 mi WSW 15.0 mph 24.2 mph N/A   Unknown
12:55 PM 75.2 °F 48.2 °F 38% 30.02 in 10.0 mi SW 23.0 mph 27.6 mph N/A   Unknown
1:15 PM 75.2 °F 48.2 °F 38% 30.02 in 10.0 mi SW 21.9 mph 27.6 mph N/A   Unknown
1:35 PM 75.2 °F 48.2 °F 38% 30.02 in 10.0 mi WSW 16.1 mph 27.6 mph N/A   Unknown
1:55 PM 75.2 °F 48.2 °F 38% 30.01 in 10.0 mi WSW 12.7 mph 23.0 mph N/A   Unknown
2:15 PM 73.4 °F 50.0 °F 44% 30.00 in 10.0 mi SW 17.3 mph 26.5 mph N/A   Unknown
2:35 PM 75.2 °F 50.0 °F 41% 30.00 in 10.0 mi SW 17.3 mph 25.3 mph N/A   Unknown
2:55 PM 75.2 °F 50.0 °F 41% 29.99 in 10.0 mi WSW 16.1 mph 21.9 mph N/A   Unknown
3:15 PM 75.2 °F 50.0 °F 41% 29.99 in 10.0 mi SW 17.3 mph 23.0 mph N/A   Unknown
3:35 PM 75.2 °F 50.0 °F 41% 29.99 in 10.0 mi SW 16.1 mph 26.5 mph N/A   Unknown
3:55 PM 73.4 °F 51.8 °F 47% 29.99 in 10.0 mi SW 11.5 mph - N/A   Unknown
4:15 PM 73.4 °F 51.8 °F 47% 29.99 in 10.0 mi SW 13.8 mph 19.6 mph N/A   Unknown
4:35 PM 71.6 °F 51.8 °F 50% 29.99 in 10.0 mi SW 12.7 mph 18.4 mph N/A   Unknown
4:55 PM 71.6 °F 51.8 °F 50% 29.99 in 10.0 mi SSW 10.4 mph - N/A   Unknown
5:15 PM 71.6 °F 51.8 °F 50% 30.00 in 10.0 mi SW 10.4 mph - N/A   Unknown
5:35 PM 69.8 °F 51.8 °F 53% 30.01 in 10.0 mi SW 6.9 mph - N/A   Unknown
5:55 PM 68.0 °F 51.8 °F 56% 30.01 in 10.0 mi SW 5.8 mph - N/A   Unknown
6:15 PM 68.0 °F 51.8 °F 56% 30.01 in 10.0 mi SSW 6.9 mph - N/A   Unknown
6:35 PM 68.0 °F 53.6 °F 60% 30.00 in 10.0 mi SSW 6.9 mph - N/A   Unknown
6:55 PM 66.2 °F 53.6 °F 64% 30.01 in 10.0 mi SSW 4.6 mph - N/A   Unknown
7:15 PM 66.2 °F 53.6 °F 64% 30.01 in 10.0 mi SW 9.2 mph - N/A   Unknown
7:35 PM 66.2 °F 53.6 °F 64% 30.00 in 10.0 mi SW 6.9 mph - N/A   Unknown
7:55 PM 64.4 °F 53.6 °F 68% 30.01 in 10.0 mi SW 5.8 mph - N/A   Unknown
8:15 PM 64.4 °F 53.6 °F 68% 30.00 in 10.0 mi SSW 6.9 mph - N/A   Unknown
8:35 PM 64.4 °F 53.6 °F 68% 30.00 in 10.0 mi SW 8.1 mph - N/A   Unknown
8:55 PM 64.4 °F 53.6 °F 68% 30.00 in 10.0 mi SW 8.1 mph - N/A   Unknown
9:15 PM 66.2 °F 53.6 °F 64% 29.99 in 10.0 mi SSW 10.4 mph - N/A   Unknown
9:35 PM 66.2 °F 53.6 °F 64% 29.99 in 10.0 mi SSW 6.9 mph - N/A   Unknown
9:55 PM 66.2 °F 53.6 °F 64% 29.99 in 10.0 mi SSW 6.9 mph - N/A   Unknown
10:15 PM 64.4 °F 53.6 °F 68% 29.98 in 10.0 mi SW 6.9 mph - N/A   Unknown
10:35 PM 64.4 °F 53.6 °F 68% 29.98 in 10.0 mi SSW 5.8 mph - N/A   Unknown
10:55 PM 64.4 °F 53.6 °F 68% 29.98 in 10.0 mi SW 8.1 mph - N/A   Unknown
11:15 PM 66.2 °F 53.6 °F 64% 29.98 in 10.0 mi SSW 9.2 mph - N/A   Unknown
11:35 PM 66.2 °F 53.6 °F 64% 29.99 in 10.0 mi SSW 11.5 mph - N/A   Unknown
11:55 PM 66.2 °F 53.6 °F 64% 29.99 in 10.0 mi SW 13.8 mph 18.4 mph N/A   Unknown